Content
SEND FEEDBACK

Daily
Averages
Monthly
Summary
French Polynesia

PAPEETE, FRENCH POLYNESIA


Home > Oceania > French Polynesia
Elevation: 2 meters     Latitude: 17 33S     Longitude: 149 36W

WEATHER
 
SELECT A DAY
Number of Records: 213,164;   Date Range: 6/30/96 - 10/1/14
 
SHARE

PRINT THIS DATA

[ ← Previous Day ]
WEATHER ALMANAC - 28 JANUARY, 2013
[ Next Day → ]
[ °F ]   °C
Weather ElementAverageHighLow
Temperature27.9 °C31 °C (1:00 pm)25 °C (12:30 am)
Dewpoint22.8 °C25 °C (11:30 am)21 °C (1:00 am)
Humidity72.9 %83 % (12:30 am)59 % (2:00 pm)
Barometer1011.2 hPa1013.9 hPa (11:00 pm)1009.1 hPa (3:06 am)
Wind Speed14.2 km/h36 km/h (2:00 pm)
Weather ElementAverage
Visibility11.1 km
Wind DirectionNE (50.5 °)

Weather ElementTotal
Precipitation---
Cooling Degree Days9.7 (Base 18.3)
Growing Degree Days18 (Base 10)
Averaged from 55 records on 28 January, 2013
WEATHER CONDITIONS BREAKOUT
WIND DIRECTION BREAKOUT
WEATHER BY HOUR - 28 JANUARY, 2013
[ °F ]   °C
Local TimeTemperatureDewpointHumidityBarometerVisibilityWind DirectionWind SpeedGust SpeedPrecipitationEventsConditions
12:30 AM25 °C22 °C83 %1011.2 hPa10 kmEast (80°)20.4 km/hMostly Cloudy
1:00 AM25 °C21 °C78 %1011.2 hPa10 kmEast (90°)18.5 km/hMostly Cloudy
1:30 AM26 °C21 °C74 %1010.2 hPa10 kmENE (70°)9.3 km/hMostly Cloudy
2:00 AM25.6 °C21.7 °C75 %1010.5 hPa14.5 kmENE (60°)13 km/hPartly Cloudy
2:00 AM26 °C22 °C78 %1010.2 hPa10 kmENE (60°)13 km/hMostly Cloudy
2:30 AM26 °C21 °C74 %1010.2 hPa10 kmENE (60°)11.1 km/hMostly Cloudy
3:06 AM26 °C21 °C74 %1009.1 hPa10 kmENE (60°)13 km/hMostly Cloudy
3:30 AM27 °C22 °C74 %1009.1 hPaENE (70°)14.8 km/h
4:00 AM26 °C22 °C78 %1009.1 hPaENE (60°)14.8 km/h
4:30 AM26 °C22 °C78 %1010.2 hPaENE (60°)13 km/h
5:00 AM26.7 °C21.7 °C69 %1010.8 hPaEast (80°)14.8 km/hClear
5:00 AM27 °C22 °C74 %1010.2 hPaEast (80°)14.8 km/h
5:30 AM27 °C22 °C74 %1011.2 hPaEast (90°)9.3 km/h
6:00 AM26 °C22 °C78 %1011.2 hPa10 kmEast (80°)11.1 km/hMostly Cloudy
6:30 AM27 °C22 °C74 %1011.2 hPa10 kmENE (70°)7.4 km/hMostly Cloudy
7:00 AM28 °C22 °C70 %1011.2 hPa10 kmNE (50°)9.3 km/hMostly Cloudy
7:30 AM28 °C22 °C70 %1011.2 hPa10 kmNE (50°)9.3 km/hScattered Clouds
8:00 AM27.8 °C22.2 °C65 %1011.9 hPa14.5 kmENE (60°)14.8 km/hPartly Cloudy
8:00 AM28 °C22 °C70 %1011.2 hPa10 kmENE (60°)14.8 km/hScattered Clouds
8:30 AM29 °C23 °C70 %1012.2 hPa10 kmNE (50°)13 km/hScattered Clouds
9:00 AM30 °C24 °C70 %1012.2 hPa10 kmNE (40°)16.7 km/hPartly Cloudy
9:30 AM29 °C23 °C70 %1012.2 hPa8 kmNorth (10°)20.4 km/hRainLight Rain Showers
10:00 AM26 °C23 °C83 %1012.2 hPa8 kmNNE (20°)18.5 km/hRainLight Rain Showers
10:30 AM28 °C24 °C79 %1011.2 hPa10 kmENE (60°)11.1 km/hScattered Clouds
11:00 AM28.3 °C23.9 °C71 %1011.9 hPa14.5 kmNNE (30°)22.2 km/hRainLight Rain Showers
11:00 AM29 °C24 °C74 %1011.2 hPa10 kmNNE (30°)22.2 km/hMostly Cloudy
11:30 AM29 °C25 °C79 %1011.2 hPa10 kmNE (40°)14.8 km/hScattered Clouds
12:00 PM30 °C25 °C74 %1011.2 hPa10 kmNE (40°)16.7 km/hMostly Cloudy
12:30 PM30 °C25 °C74 %1011.2 hPa10 kmNE (40°)18.5 km/hMostly Cloudy
1:00 PM31 °C24 °C66 %1010.2 hPa10 kmNE (40°)16.7 km/hScattered Clouds
1:30 PM31 °C24 °C66 %1010.2 hPa10 kmNE (40°)18.5 km/hPartly Cloudy
2:00 PM30.6 °C23.9 °C59 %1010.5 hPa19.3 kmNNE (30°)36 km/hScattered Clouds
2:00 PM31 °C24 °C66 %1010.2 hPa10 kmNNE (30°)18.5 km/hScattered Clouds
2:30 PM31 °C24 °C66 %1010.2 hPa10 kmNNE (30°)18.5 km/hScattered Clouds
3:00 PM31 °C25 °C70 %1010.2 hPa10 kmNNE (30°)18.5 km/hScattered Clouds
3:30 PM30 °C25 °C74 %1010.2 hPa10 kmNNE (30°)18.5 km/hMostly Cloudy
4:00 PM30 °C24 °C70 %1010.2 hPa10 kmNE (40°)16.7 km/hMostly Cloudy
4:30 PM30 °C24 °C70 %1010.2 hPa10 kmNE (40°)16.7 km/hScattered Clouds
5:00 PM29.4 °C23.3 °C62 %1010.2 hPa25.7 kmNE (40°)16.7 km/hScattered Clouds
5:00 PM29 °C23 °C70 %1010.2 hPa10 kmNE (40°)16.7 km/hPartly Cloudy
5:30 PM29 °C24 °C74 %1010.2 hPa10 kmNE (40°)20.4 km/hPartly Cloudy
6:00 PM29 °C24 °C74 %1010.2 hPa10 kmNE (40°)18.5 km/hPartly Cloudy
6:30 PM28 °C24 °C79 %1011.2 hPa10 kmNE (40°)16.7 km/hPartly Cloudy
7:00 PM28 °C23 °C74 %1011.2 hPa10 kmNE (50°)18.5 km/hPartly Cloudy
7:30 PM28 °C23 °C74 %1011.2 hPa10 kmENE (60°)14.8 km/hPartly Cloudy
8:00 PM27.8 °C22.8 °C69 %1012.5 hPa19.3 kmENE (60°)11.1 km/hScattered Clouds
8:00 PM28 °C23 °C74 %1012.2 hPa10 kmENE (60°)11.1 km/hPartly Cloudy
8:30 PM27 °C23 °C79 %1012.2 hPa10 kmENE (70°)7.4 km/hPartly Cloudy
9:00 PM27 °C23 °C79 %1012.2 hPa10 kmEast (80°)7.4 km/hPartly Cloudy
9:30 PM27 °C22 °C74 %1013.2 hPa10 kmVariable3.7 km/hPartly Cloudy
10:00 PM26 °C22 °C78 %1013.2 hPa10 kmVariable3.7 km/hPartly Cloudy
10:30 PM26 °C21 °C74 %1013.2 hPa10 kmVariable3.7 km/hPartly Cloudy
11:00 PM26.1 °C21.1 °C67 %1013.9 hPa19.3 kmSE (140°)1.9 km/hScattered Clouds
11:00 PM26 °C21 °C74 %1013.2 hPa10 kmVariable1.9 km/hPartly Cloudy
11:30 PM26 °C21 °C74 %1013.2 hPa10 kmEast (100°)3.7 km/hPartly Cloudy
Hourly data recorded from NTAA, located 0 kilometers away from Papeete, French Polynesia







STORIES FROM OUR PARTNERS